Location: Chimay
(50.0486°N, 4.3171°E)
Time: 16:27:43
(UTC+00:00)

USA 238 DEB - Pass Details

Date: 08 August 2020
Orbit: 1006 x 1206 km, 63.4° (Epoch: 17 September)

Event Time Altitude Azimuth Distance (km) Brightness Sun altitude
Rises 22:19:45 0° 229° (SW) 3,748 6.4 -21.3°
Reaches altitude 10° 22:22:18 10° 231° (SW) 2,816 5.7 -21.5°
Maximum altitude 22:28:57 74° 317° (NW) 1,101 3.8 -21.9°
Drops below altitude 10° 22:35:56 10° 42° (NE) 2,955 6.4 -22.3°
Sets 22:38:41 0° 45° (NE) 3,946 7.0 -22.4°
